MOLNIYA 3-8

Satellite information

Favourite Embed

Satellite Type and Status

PAYLOADIN ORBIT

Key statistics

Satellite MOLNIYA 3-8 at a glance.

Uptime

17534

Days in orbit

Revolutions

≈ 2.0

Per day

Orbit

OTHER

Other

Inclination

63.7

Latest

Satellite identification and parameters

Extended collection of information and parameters for MOLNIYA 3-8.

Object identification

Identified? True

Debris? False

Object name: MOLNIYA 3-8

International designator: 1977-105A

Object number (NORAD): 10455

Object ID (CCSDS): 10455

Country: COMMONWEALTH OF INDEPENDENT STATES (CIS)

Current information (Y/N): Y

RCS size: LARGE

Orbital parameters

Period: 718.442 minutes

Inclination: 63.7031 deg

SMA: 26571.823 km

Apoapsis: 38203.897 km

Periapsis: 2183.479 km

RAAN: 200.088 deg

Eccentricy: 0.67779351

Argument of periapsis: 278.8309 deg

Mean anomaly: 15.6882 deg

Mean motion: 2.00433696 rev/day

Mean motion (dot): -0.00000422 rev/day2

B* drag term: 0.0 1/REarth

Two-line elements (TLE)

Creation date: Oct. 28, 2025, 7:11 p.m.

Reference frame: TEME

Reference center: EARTH

Epoch: Oct. 28, 2025, 5:29 a.m. UTC

TLE line 0: 0 MOLNIYA 3-8

TLE line 1: 1 10455U 77105A 25301.22875511 -.00000422 00000-0 00000-0 0 9996

TLE line 2: 2 10455 63.7031 200.0880 6777935 278.8309 15.6882 2.00433696351794

Live tracking on map

Real-time ground track for satellite MOLNIYA 3-8.

In-orbit conjunctions

There are no conjunctions computed for MOLNIYA 3-8, at the moment. Check back to stay up to date, as we update our databases every day.

Go to all conjunctions

Associated space launch

Molniya communication satellites operating from a highly elliptical orbit

MOLNIYA 3-8 was lifted into orbit during the mission ‘Molniya-M | Molniya-3 18L’, on board a Molniya-M space rocket.

The launch took place on Oct. 28, 1977, 1:37 a.m. from 43/3 (43L).

For more information about the launch, click the button.

Launch to space Molniya-M | Molniya-3 18L
Molniya-M | Molniya-3 18L

Agency: N/A

Status: Launch Successful

Launch date: Oct. 28, 1977, 1:37 a.m. UTC

Rocket: Molniya-M

Launch pad: 43/3 (43L)

Location: Plesetsk Cosmodrome, Russian Federation

...

Latest news about this satellite

There are no fresh news available about this satellite. Check back as we update our databases every day.


Newsletter sign-up

Weekly statistics, charts and insights to help you stay on top of the space industry.